Tracking 19146 objects as of 24-Apr-2018
HD Live streaming from Space Station
objects crossing your sky now

FENGYUN 1C DEB

Track FENGYUN 1C DEB now!
10-day predictions


NORAD ID: 30303
Int'l Code: 1999-025ZQ
Perigee: 804.8 km
Apogee: 940.5 km
Inclination: 99.1 °
Period: 102.3 minutes
Semi major axis: 7243 km
RCS: 0.0059 m2 (small)
Launch date: May 10, 1999
Source: People's Republic of China (PRC)
Launch site: Taiyaun Space Center, China (TSC)

Note: This is SATELLITE DEBRIS
aabbcc
Your satellite tracking list
Your tracking list is empty




NASA's NSSDC Master Catalog

Two Line Element Set (TLE):
1 30303U 99025ZQ  18113.93031632  .00000993  00000-0  58477-3 0  9990
2 30303  99.1335 113.5977 0093692 218.0152 174.8971 14.08204840576389
Source of the keplerian elements: AFSPC